• Em Portugal
  • Lista de países
  • Para 7 dias
  • Temperatura da água
  • Mapas de satélite
  • Mapa do tempo
  • Widgets de tempo
  • user-avatar
    Iniciar Sessão

    Previsão horária em Santiago del Estero

    Hoje, 18 Fevereiro, Domingo

    Tempo Temperatura Precipitação Vento Pressão Humidade
    00:00 +27°C° 0 mm 2 m/s 739 mmHg 69%
    01:00 +26°C° 0 mm 1 m/s 739 mmHg 70%
    02:00 +26°C° 0 mm 1 m/s 739 mmHg 71%
    03:00 +26°C° 0 mm 1 m/s 738 mmHg 72%
    04:00 +25°C° 0 mm 1 m/s 738 mmHg 73%
    05:00 +25°C° 0 mm 1 m/s 738 mmHg 74%
    06:00 +26°C° 0 mm 2 m/s 738 mmHg 72%
    07:00 +27°C° 0 mm 2 m/s 738 mmHg 69%
    08:00 +28°C° 0 mm 2 m/s 738 mmHg 67%
    09:00 +30°C° 0 mm 3 m/s 738 mmHg 61%
    10:00 +31°C° 0 mm 3 m/s 737 mmHg 54%
    11:00 +34°C° 0 mm 3 m/s 737 mmHg 48%
    12:00 +35°C° 0 mm 3 m/s 736 mmHg 45%
    13:00 +36°C° 0 mm 3 m/s 736 mmHg 42%
    14:00 +37°C° 0 mm 3 m/s 735 mmHg 39%
    15:00 +37°C° 0 mm 3 m/s 734 mmHg 41%
    16:00 +36°C° 0 mm 4 m/s 734 mmHg 43%
    17:00 +36°C° 0 mm 4 m/s 734 mmHg 44%
    18:00 +34°C° 0 mm 4 m/s 734 mmHg 50%
    19:00 +31°C° 0 mm 3 m/s 734 mmHg 55%
    20:00 +30°C° 0 mm 3 m/s 735 mmHg 60%
    21:00 +29°C° 0,1 mm 3 m/s 735 mmHg 63%
    22:00 +28°C° 0,1 mm 3 m/s 735 mmHg 67%
    23:00 +28°C° 0,1 mm 3 m/s 736 mmHg 70%

    Amanhã, 19 Fevereiro, Segunda-feira

    Tempo Temperatura Precipitação Vento Pressão Humidade
    00:00 +27°C° 0,1 mm 3 m/s 735 mmHg 73%
    01:00 +26°C° 0,1 mm 3 m/s 735 mmHg 77%
    02:00 +26°C° 0,1 mm 3 m/s 735 mmHg 80%
    03:00 +25°C° 0,1 mm 3 m/s 735 mmHg 84%
    04:00 +25°C° 0,1 mm 2 m/s 735 mmHg 88%
    05:00 +24°C° 0,1 mm 2 m/s 735 mmHg 92%
    06:00 +25°C° 0 mm 2 m/s 735 mmHg 88%
    07:00 +26°C° 0 mm 2 m/s 736 mmHg 83%
    08:00 +27°C° 0 mm 2 m/s 736 mmHg 79%
    09:00 +30°C° 0 mm 1 m/s 736 mmHg 69%
    10:00 +32°C° 0 mm 1 m/s 736 mmHg 59%
    11:00 +33°C° 0 mm 0 m/s 736 mmHg 49%
    12:00 +36°C° 0 mm 1 m/s 735 mmHg 44%
    13:00 +37°C° 0 mm 1 m/s 735 mmHg 39%
    14:00 +39°C° 0 mm 2 m/s 734 mmHg 35%
    15:00 +38°C° 0 mm 2 m/s 734 mmHg 35%
    16:00 +38°C° 0 mm 3 m/s 734 mmHg 36%
    17:00 +37°C° 0 mm 4 m/s 734 mmHg 37%
    18:00 +36°C° 0 mm 4 m/s 734 mmHg 42%
    19:00 +34°C° 0 mm 3 m/s 735 mmHg 47%
    20:00 +31°C° 0 mm 3 m/s 735 mmHg 51%
    21:00 +31°C° 0 mm 3 m/s 736 mmHg 53%
    22:00 +30°C° 0 mm 2 m/s 736 mmHg 55%
    23:00 +30°C° 0 mm 2 m/s 736 mmHg 56%

    Depois de amanhã, 20 Fevereiro, Terça-feira

    Tempo Temperatura Precipitação Vento Pressão Humidade
    00:00 +29°C° 0 mm 2 m/s 736 mmHg 59%
    01:00 +28°C° 0 mm 1 m/s 736 mmHg 62%
    02:00 +28°C° 0 mm 1 m/s 736 mmHg 65%
    03:00 +27°C° 0 mm 1 m/s 736 mmHg 67%
    04:00 +27°C° 0 mm 1 m/s 736 mmHg 69%
    05:00 +27°C° 0 mm 1 m/s 736 mmHg 71%
    06:00 +28°C° 0 mm 1 m/s 737 mmHg 67%
    07:00 +29°C° 0 mm 1 m/s 737 mmHg 63%
    08:00 +30°C° 0 mm 1 m/s 738 mmHg 59%
    09:00 +32°C° 0 mm 1 m/s 738 mmHg 55%
    10:00 +34°C° 0 mm 2 m/s 738 mmHg 50%
    11:00 +35°C° 0 mm 2 m/s 738 mmHg 46%
    12:00 +36°C° 0 mm 2 m/s 738 mmHg 42%
    13:00 +37°C° 0 mm 3 m/s 737 mmHg 39%
    14:00 +38°C° 0 mm 3 m/s 737 mmHg 35%
    15:00 +38°C° 0 mm 3 m/s 737 mmHg 35%
    16:00 +38°C° 0 mm 4 m/s 737 mmHg 34%
    17:00 +38°C° 0 mm 4 m/s 737 mmHg 34%
    18:00 +36°C° 0 mm 3 m/s 737 mmHg 38%
    19:00 +34°C° 0 mm 3 m/s 738 mmHg 41%
    20:00 +32°C° 0 mm 2 m/s 739 mmHg 45%
    21:00 +31°C° 0 mm 2 m/s 739 mmHg 48%
    22:00 +30°C° 0 mm 2 m/s 740 mmHg 51%
    23:00 +30°C° 0 mm 2 m/s 740 mmHg 54%

    21 Fevereiro, Quarta-feira

    Tempo Temperatura Precipitação Vento Pressão Humidade
    00:00 +29°C° 0,5 mm 2 m/s 740 mmHg 59%
    01:00 +28°C° 0,5 mm 2 m/s 740 mmHg 64%
    02:00 +27°C° 0,5 mm 2 m/s 740 mmHg 69%
    03:00 +26°C° 0,3 mm 2 m/s 741 mmHg 70%
    04:00 +26°C° 0,3 mm 3 m/s 741 mmHg 70%
    05:00 +25°C° 0,3 mm 3 m/s 741 mmHg 71%
    06:00 +25°C° 0,3 mm 3 m/s 742 mmHg 71%
    07:00 +25°C° 0,3 mm 3 m/s 743 mmHg 71%
    08:00 +25°C° 0,3 mm 3 m/s 744 mmHg 71%
    09:00 +27°C° 0,2 mm 3 m/s 744 mmHg 63%
    10:00 +29°C° 0,2 mm 3 m/s 744 mmHg 56%
    11:00 +31°C° 0,2 mm 2 m/s 744 mmHg 49%
    12:00 +34°C° 0 mm 2 m/s 743 mmHg 44%
    13:00 +35°C° 0 mm 2 m/s 742 mmHg 40%
    14:00 +37°C° 0 mm 2 m/s 741 mmHg 35%
    15:00 +37°C° 0 mm 2 m/s 740 mmHg 34%
    16:00 +37°C° 0 mm 2 m/s 740 mmHg 33%
    17:00 +37°C° 0 mm 2 m/s 739 mmHg 32%
    18:00 +35°C° 0 mm 2 m/s 740 mmHg 37%
    19:00 +32°C° 0 mm 2 m/s 740 mmHg 42%
    20:00 +30°C° 0 mm 2 m/s 740 mmHg 46%
    21:00 +29°C° 0 mm 2 m/s 741 mmHg 49%
    22:00 +29°C° 0 mm 2 m/s 741 mmHg 52%
    23:00 +28°C° 0 mm 2 m/s 741 mmHg 55%

    22 Fevereiro, Quinta-feira

    Tempo Temperatura Precipitação Vento Pressão Humidade
    00:00 +28°C° 0 mm 2 m/s 741 mmHg 57%
    01:00 +27°C° 0 mm 2 m/s 741 mmHg 59%
    02:00 +27°C° 0 mm 2 m/s 741 mmHg 61%
    03:00 +27°C° 0 mm 2 m/s 741 mmHg 63%
    04:00 +26°C° 0 mm 2 m/s 741 mmHg 64%
    05:00 +26°C° 0 mm 2 m/s 741 mmHg 66%
    06:00 +27°C° 0 mm 3 m/s 742 mmHg 63%
    07:00 +28°C° 0 mm 3 m/s 742 mmHg 61%
    08:00 +29°C° 0 mm 4 m/s 743 mmHg 58%
    09:00 +32°C° 0 mm 4 m/s 742 mmHg 53%
    10:00 +34°C° 0 mm 4 m/s 742 mmHg 47%
    11:00 +36°C° 0 mm 4 m/s 742 mmHg 42%
    12:00 +36°C° 0 mm 4 m/s 741 mmHg 39%
    13:00 +37°C° 0 mm 4 m/s 741 mmHg 36%
    14:00 +38°C° 0 mm 4 m/s 740 mmHg 34%
    15:00 +38°C° 0 mm 4 m/s 739 mmHg 33%
    16:00 +38°C° 0 mm 4 m/s 739 mmHg 33%
    17:00 +38°C° 0 mm 4 m/s 738 mmHg 32%
    18:00 +36°C° 0 mm 4 m/s 739 mmHg 36%
    19:00 +34°C° 0 mm 3 m/s 739 mmHg 39%
    20:00 +31°C° 0 mm 3 m/s 740 mmHg 43%
    21:00 +30°C° 0 mm 3 m/s 740 mmHg 44%
    22:00 +29°C° 0 mm 3 m/s 740 mmHg 46%
    23:00 +29°C° 0 mm 3 m/s 740 mmHg 47%

    23 Fevereiro, Sexta-feira

    Tempo Temperatura Precipitação Vento Pressão Humidade
    00:00 +28°C° 0 mm 3 m/s 740 mmHg 49%
    01:00 +28°C° 0 mm 4 m/s 740 mmHg 50%
    02:00 +27°C° 0 mm 4 m/s 740 mmHg 52%
    03:00 +26°C° 0 mm 3 m/s 740 mmHg 52%
    04:00 +26°C° 0 mm 3 m/s 740 mmHg 53%
    05:00 +25°C° 0 mm 3 m/s 740 mmHg 53%
    06:00 +26°C° 0 mm 3 m/s 741 mmHg 51%
    07:00 +27°C° 0 mm 4 m/s 741 mmHg 49%
    08:00 +28°C° 0 mm 4 m/s 741 mmHg 48%
    09:00 +30°C° 0 mm 3 m/s 742 mmHg 43%
    10:00 +33°C° 0 mm 3 m/s 742 mmHg 39%
    11:00 +35°C° 0 mm 2 m/s 742 mmHg 35%
    12:00 +36°C° 0 mm 2 m/s 742 mmHg 33%
    13:00 +36°C° 0 mm 1 m/s 741 mmHg 31%
    14:00 +37°C° 0 mm 1 m/s 741 mmHg 29%
    15:00 +37°C° 0 mm 2 m/s 741 mmHg 31%
    16:00 +37°C° 0 mm 2 m/s 740 mmHg 33%
    17:00 +36°C° 0 mm 2 m/s 740 mmHg 35%
    18:00 +35°C° 0 mm 3 m/s 741 mmHg 39%
    19:00 +33°C° 0 mm 4 m/s 741 mmHg 42%
    20:00 +32°C° 0 mm 4 m/s 742 mmHg 45%
    21:00 +30°C° 0 mm 4 m/s 742 mmHg 47%
    22:00 +30°C° 0 mm 4 m/s 742 mmHg 48%
    23:00 +29°C° 0 mm 5 m/s 743 mmHg 50%
    Mostrar mais